Lynchburg, VA

6:56 AM EDT on October 17, 2019 (GMT -0400)
Lynchburg Regional-Glenn

Weather History for KLYH - August, 2019

Change the Weather History Date:

Monday, August 26, 2019

  Actual Average Record
Temperature  
Mean Temperature 69 °F 73 °F  
Max Temperature 75 °F 84 °F 95 °F (1900)
Min Temperature 63 °F 62 °F 48 °F (1942)
Degree Days  
Heating Degree Days 0 0  
Month to date heating degree days 0 0  
Since 1 June heating degree days 2 15  
Since 1 July heating degree days 0 1  
Cooling Degree Days 4 8  
Month to date cooling degree days 324 246  
Year to date cooling degree days 1179 860  
Since 1 June cooling degree days 967 778  
Growing Degree Days 19 (Base 50)    
Moisture  
Dew Point 60 °F    
Average Humidity 76    
Maximum Humidity 93    
Minimum Humidity 55    
Precipitation  
Precipitation T in 0.10 in 1.61 in (1928)
Month to date precipitation 3.14 2.73  
Year to date precipitation 27.48 27.40  
Snow  
Snow 0.00 in - - ()
Month to date snowfall 0.0  
Since 1 June snowfall 0.0  
Since 1 July snowfall 0.0  
Snow Depth 0.00 in    
Sea Level Pressure  
Sea Level Pressure 30.14 in    
Wind  
Wind Speed 7 mph ()    
Max Wind Speed 14 mph    
Max Gust Speed 19 mph    
Visibility 10.0 miles    
Events      
T = Trace of Precipitation, MM = Missing Value Source: Averaged Metar Reports

Daily Weather History Graph

Daily Weather History Graph

Search for Another Location

Airport or City:

Astronomy

Aug. 26, 2019 Rise Set
Actual Time 6:42 AM EDT 7:54 PM EDT
Civil Twilight 6:15 AM EDT 8:21 PM EDT
Nautical Twilight 5:42 AM EDT 8:53 PM EDT
Astronomical Twilight 5:09 AM EDT 9:27 PM EDT
Moon 2:10 AM EDT (8/26) 5:11 PM EDT (8/26)
Length of Visible Light 14h 06m
Length of Day
13h 12m
Waning Crescent, 19% of the Moon is Illuminated
Aug 26
Waning Crescent
Aug 30
New
Sep 5
First Quarter
Sep 14
Full
Sep 21
Last Quarter

Hourly Weather History & Observations

Time (EDT) Temp. Dew Point Humidity Pressure Visibility Wind Dir Wind Speed Gust Speed Precip Events Conditions
12:54 AM 66.0 °F 59.0 °F 78% 30.15 in 10.0 mi NE 8.1 mph - N/A   Overcast
1:54 AM 64.0 °F 59.0 °F 84% 30.15 in 10.0 mi NE 5.8 mph - N/A   Mostly Cloudy
2:54 AM 64.0 °F 59.0 °F 84% 30.15 in 10.0 mi NNE 4.6 mph - N/A   Mostly Cloudy
3:54 AM 63.0 °F 59.0 °F 87% 30.14 in 10.0 mi NNE 9.2 mph - N/A   Overcast
5:54 AM 63.0 °F 57.9 °F 84% 30.14 in 10.0 mi NNE 8.1 mph - N/A   Overcast
6:54 AM 63.0 °F 57.9 °F 84% 30.16 in 10.0 mi NNE 6.9 mph - N/A   Overcast
7:17 AM 63.0 °F 57.9 °F 84% 30.18 in 10.0 mi NNE 9.2 mph - N/A   Overcast
7:37 AM 63.0 °F 57.9 °F 84% 30.18 in 10.0 mi NNE 8.1 mph - N/A   Overcast
7:54 AM 64.0 °F 59.0 °F 84% 30.17 in 10.0 mi NNE 10.4 mph - N/A   Overcast
8:54 AM 66.9 °F 59.0 °F 76% 30.16 in 10.0 mi NE 10.4 mph - N/A   Overcast
9:01 AM 66.9 °F 59.0 °F 76% 30.18 in 10.0 mi NNE 10.4 mph - N/A   Mostly Cloudy
9:54 AM 69.1 °F 59.0 °F 70% 30.16 in 10.0 mi ENE 12.7 mph 18.4 mph N/A   Mostly Cloudy
9:57 AM 70.0 °F 60.1 °F 71% 30.18 in 10.0 mi ENE 10.4 mph 18.4 mph N/A   Scattered Clouds
10:12 AM 69.1 °F 60.1 °F 73% 30.18 in 10.0 mi NE 10.4 mph - N/A   Mostly Cloudy
10:54 AM 70.0 °F 59.0 °F 68% 30.16 in 10.0 mi ENE 9.2 mph - N/A   Mostly Cloudy
11:54 AM 71.1 °F 59.0 °F 66% 30.16 in 10.0 mi NNE 8.1 mph - N/A   Overcast
12:25 PM 72.0 °F 59.0 °F 64% 30.16 in 10.0 mi NE 9.2 mph - N/A   Scattered Clouds
12:54 PM 73.9 °F 57.0 °F 55% 30.14 in 10.0 mi NE 8.1 mph - N/A   Mostly Cloudy
1:54 PM 73.9 °F 59.0 °F 59% 30.13 in 10.0 mi Variable 5.8 mph - N/A   Overcast
2:54 PM 73.0 °F 60.1 °F 64% 30.12 in 10.0 mi NE 8.1 mph - N/A   Overcast
3:54 PM 73.0 °F 60.1 °F 64% 30.09 in 10.0 mi East 9.2 mph - N/A   Overcast
5:25 PM 71.1 °F 61.0 °F 70% 30.11 in 10.0 mi East 4.6 mph - N/A   Overcast
5:54 PM 70.0 °F 61.0 °F 73% 30.09 in 10.0 mi ENE 5.8 mph - N/A   Overcast
6:54 PM 70.0 °F 62.1 °F 76% 30.08 in 10.0 mi East 4.6 mph - N/A   Overcast
7:54 PM 68.0 °F 62.1 °F 81% 30.09 in 10.0 mi East 4.6 mph - N/A   Overcast
8:46 PM 68.0 °F 63.0 °F 84% 30.12 in 10.0 mi NE 3.5 mph - N/A   Overcast
8:54 PM 68.0 °F 62.1 °F 81% 30.10 in 10.0 mi ENE 4.6 mph - N/A   Overcast
9:54 PM 66.9 °F 63.0 °F 87% 30.11 in 10.0 mi NE 3.5 mph - 0.00 in   Overcast
10:54 PM 66.0 °F 63.0 °F 90% 30.11 in 10.0 mi NNW 3.5 mph - 0.00 in   Overcast
11:54 PM 66.0 °F 64.0 °F 93% 30.11 in 10.0 mi Variable 3.5 mph - 0.00 in   Overcast